Cedarville, West Virginia
Current Conditions -  °F | °C
As of 3:15 AM on Thursday 27 Nov 2014 (Local Time) from KW22 Reporting Station
Moderate Fog Moderate Fog  
Wind Chill: 30°   Ceiling: 100
Heat Index: NA   Visibility: 0mi
Dew Point: 32°   Wind: 0mph
Humidity: NA   Direction: NA
Pressure: 29.97"   Gusts: NA
Location:  38.84°N, 80.82°W
Report Text: KW22 270815Z AUTO 00000KT M1/4SM FZFG OVC001 M01/M00 A2997 RMK AO2
Loading
Personal Weather Stations






























Interactive Weather Map New forecast layout! Learn more

10-Day Weather Forecast

Advertisements
Track Severe Weather on mobile